Location: Bergnerzell
(49.1816°N, 10.2565°E)
Time: 02:46:35
(UTC+00:00)

CZ-2C R/B - Pass Details

Date: 23 May 2024
Orbit: 783 x 868 km, 98.3° (Epoch: 13 June)

Event Time Altitude Azimuth Distance (km) Brightness Sun altitude
Exits shadow 02:29:14 - 213° (SSW) 2,400 4.4 -8.0°
Reaches altitude 10° 02:29:26 10° 215° (SW) 2,338 4.4 -8.0°
Maximum altitude 02:33:34 24° 268° (W) 1,585 3.8 -7.5°
Drops below altitude 10° 02:37:43 10° 322° (NW) 2,357 5.1 -7.0°
Sets 02:40:31 0° 336° (NNW) 3,298 6.0 -6.7°
